Retour au catalogue

STARLINK-32050

ActifCommunicationsVLEO
NORAD 60137·PAYLOAD·🇺🇸 United States

Lancé Jun 27, 2024 depuis Cape Canaveral Space Force Station

Loading…

Prochains Passages (prochaines 24 heures)

TLE

FraisSource: CelesTrak SupGP

Époque: Sep 15, 2026, 03:26 UTC

1 60137C 24120C   26258.14354167  .00016070  00000+0  47485-3 0  2582
2 60137  53.1581 156.7374 0001281  86.4791  53.9295 15.34378768    18

Suivez STARLINK-32050 en temps réel avec AllMySat

Download on the App Store